User: anonymous   Login
Location: *
(0.1100°N, 5.5000°E)
Time: 23:29:45
(UTC+00:00)
Language:

Cosmos 1802 Rocket - Orbit

View from above orbital plane
View from above orbital plane
View from above satellite
View from above satellite

Ground track
Ground track

The orbit data is extracted from the following two-line orbital elements,

1 17160U 86093B   23088.83995640  .00000127  00000-0  11715-3 0  9994
2 17160  82.9248 297.7072 0039444  25.3679 344.7620 13.74706593822711
Epoch (UTC): 29 March 2023 20:09:32
Eccentricity: 0.0039444
inclination: 82.9248°
perigee height: 953 km
apogee height: 1012 km
right ascension of ascending node: 297.7072°
argument of perigee: 25.3679°
revolutions per day: 13.74706593
mean anomaly at epoch: 344.7620°
orbit number at epoch: 82271

The dashed part of the orbit path shows where the satellite is in the earth's shadow,  

DLR